Regional Weather Roundup
Issued by NWS

Current Version | Previous Version | Text Only | Print | Product List | Glossary Off
Versions: 1 2 3 4 5 6 7 8 9 10 11 12 13 14 15 16 17 18 19 20 21 22 23 24 25 26 27 28 29 30 31 32 33 34 35 36 37 38 39 40 41 42 43 44 45 46 47 48 49 50

000
ASUS43 KLMK 241410
RWRKY
KENTUCKY REGIONAL WEATHER ROUNDUP
NATIONAL WEATHER SERVICE LOUISVILLE KY
1000 AM EDT THU MAY 24 2018

NOTE "FAIR" INDICATES FEW OR NO CLOUDS BELOW 12,000 FEET
WITH NO SIGNIFICANT WEATHER AND/OR OBSTRUCTIONS TO VISIBILITY.

KYZ001>023-026-027-061>063-070>075-241500-
WESTERN AND SOUTH CENTRAL KENTUCKY

CITY           SKY/WX    TMP DP  RH WIND       PRES   REMARKS
PADUCAH        FAIR      77  66  68 VRB3      30.15S
HENDERSON      NOT AVBL
OWENSBORO      FAIR      74  63  68 NE5       30.18S
HOPKINSVILLE   FAIR      76  67  73 CALM      30.15S
BOWLING GREEN  FAIR      75  67  76 NE6       30.16S
GLASGOW        FAIR      73  63  69 NE5       30.18R
$$

KYZ024-025-028>034-038-045-046-053-241500-
NORTH CENTRAL KENTUCKY

CITY           SKY/WX    TMP DP  RH WIND       PRES   REMARKS
LOUISVILLE/SDF FAIR      74  55  51 E7        30.19S
LOUISVILLE/LOU FAIR      74  58  57 NE8       30.20S
FORT KNOX      FAIR      71  58  62 E7        30.20S
$$

KYZ035>037-039>044-047>052-055>060-089>105-241500-
NORTHEAST KENTUCKY

CITY           SKY/WX    TMP DP  RH WIND       PRES   REMARKS
LEXINGTON      FAIR      71  60  68 E8        30.21R
COVINGTON      FAIR      71  57  61 E7        30.23R
FRANKFORT      FAIR      70  58  65 E9        30.19F
$$

KYZ054-064>069-076>088-106>120-241500-
SOUTHEAST KENTUCKY

CITY           SKY/WX    TMP DP  RH WIND       PRES   REMARKS
JACKSON        FAIR      69  61  75 CALM      30.20R
LONDON         FAIR      71  63  75 NE5       30.18S
SOMERSET       FAIR      72  61  68 MISG      30.20S
MIDDLESBORO    CLOUDY    64  64 100 CALM      30.19S
MONTICELLO     FAIR      73  65  75 NW6       30.19S
$$




USA.gov is the U.S. government's official web portal to all federal, state and local government web resources and services.